Simultaneous Nadir Overpasses (SNOs) Predictions

Prediction of SNOs between GOES-16 and AQUA Satellite Orbit:

Table of predicted SNOs for the next 14.0 days since TLE Epoch: 11/24/2018
Index Date Time (GOES-16) GOES-16 Lat,Lon AQUA Lat,Lon Distance(km) Time Diff (sec)
1 11/25/2018 06:23:23 0.00, -75.19 -0.60, -72.39 318.50 80
2 11/25/2018 18:44:47 -0.00, -75.19 -0.49, -77.58 271.86 80
3 11/27/2018 18:35:15 -0.00, -75.19 0.09, -74.62 64.30 80
4 11/29/2018 18:23:04 -0.00, -75.19 0.74, -71.66 400.95 80
5 11/30/2018 06:44:20 0.00, -75.20 0.37, -76.82 185.19 80
6 12/02/2018 06:29:29 0.00, -75.21 -0.28, -73.87 152.55 80
7 12/02/2018 18:50:53 0.00, -75.21 -0.79, -79.06 437.29 80
8 12/04/2018 06:17:18 -0.00, -75.23 -0.94, -70.92 490.94 80
9 12/04/2018 18:38:41 0.00, -75.23 -0.19, -76.10 98.71 80
10 12/06/2018 18:29:10 0.01, -75.26 0.47, -73.15 240.31 80
11 12/07/2018 06:50:26 -0.01, -75.27 0.65, -78.30 345.15 80




NCC Satellite Simultaneous Nadir Overpasses (SNOs) Prediction Service
